Location: Joplin, MO
(37.0842°N, 94.5133°W)
Time: 22:48:23
(UTC+02:00)

Transit 2A Rocket - Pass Details

Date: 30 March 2023
Orbit: 584 x 914 km, 66.7° (Epoch: 06 June)

Event Time Altitude Azimuth Distance (km) Brightness Sun altitude
Rises 16:42:33 0° 162° (SSE) 3,180 8.7 29.8°
Reaches altitude 10° 16:45:38 10° 142° (SE) 2,328 8.5 30.4°
Maximum altitude 16:49:00 17° 103° (ESE) 1,956 9.0 31.0°
Drops below altitude 10° 16:52:31 10° 64° (ENE) 2,469 8.3 31.6°
Sets 16:55:55 0° 46° (NE) 3,464 8.7 32.3°
